Weather in Niamey

Niger     13°31′28″N   2°06′31″E
temp.,
°C
wind,
m/s
gust,
m/s
humid.,
%
clouds,
%
prec.,
mm/h
press.,
hPa
HPBL,
m
27 january, wed
wed2701:00+23nne48785 0.0 1013133
04:00+21nne58728 0.0 1011169
07:00+19ne59731 0.0 1013198
10:00+25ene710648 0.0 1014473
13:00+32ene67525 0.0 10121139
16:00+34ne4450 0.0 10091797
19:00+29ne46614 0.0 1010165
22:00+26nne4670 0.0 1012105
28 january, thu
thu2801:00+23nne4670 0.0 1012102
04:00+21ne5860 0.0 1011156
07:00+20ne59730 0.0 1012173
10:00+25ene71070 0.0 1014483
13:00+32e78518 0.0 10111111
16:00+35e56555 0.0 10091798
19:00+30ene46830 0.0 1010139
22:00+27ene46915 0.0 1012103
29 january, fri
fri2901:00+24ne46117 0.0 1013117
04:00+22ne59120 0.0 1011192
07:00+20ene611140 0.0 1013256
10:00+25e711130 0.0 1015566
13:00+32e7880 0.0 10131202
16:00+34ene56715 0.0 10101798
19:00+30ene4697 0.0 1011264
22:00+26ne47100 0.0 1013132
30 january, sat
sat3001:00+24ne461026 0.0 1013118
04:00+22ne58117 0.0 1013159
07:00+20ene5111534 0.0 1013235
10:00+25ene7111367 0.0 1015553
13:00+32e78854 0.0 10121243
16:00+34ene5570 0.0 10091796
19:00+29ene3590 0.0 1010224
22:00+26ne4690 0.0 1012106
31 january, sun
sun3101:00+23ne46100 0.0 101294
04:00+22ne57110 0.0 1011142
07:00+20ne47120 0.0 1012144
10:00+25ene6990 0.0 1014397
13:00+32ene6660 0.0 10111111
16:00+33ne4360 0.0 10091980
19:00+28nne3470 0.0 1009191
22:00+26nne5880 0.0 1012152